Wind_Speed
19 18 17 18 17 17 17 16 15 15 15 15 15 16 17 17 19 19 19 18 16 15 13 10 8 6 6 10 14 16 18 19 20 20 20 19 19 18 17 14 12 11 10 10
19 17 19 20 18 18 18 17 16 16 16 16 15 15 16 17 18 18 17 17 15 14 13 11 9 5 5 9 13 16 18 19 19 19 20 20 20 18 17 15 13 12 12 11
19 18 22 21 19 19 18 18 17 17 16 15 15 14 16 18 17 16 16 15 14 13 12 12 9 6 5 8 11 16 19 20 20 20 20 20 19 18 16 15 14 13 13 13
19 20 22 21 19 19 18 18 17 16 16 15 15 16 15 16 17 16 16 14 13 12 11 10 9 6 4 7 10 14 18 19 20 20 20 20 20 18 16 15 14 13 14 14
18 20 22 20 19 20 18 18 18 17 16 15 15 16 14 15 16 16 16 14 12 12 11 9 8 5 3 6 9 12 15 17 18 18 19 20 19 18 16 15 15 15 15 14
18 21 21 20 19 20 19 18 18 17 16 15 15 15 13 14 15 15 14 13 12 11 10 8 6 3 2 4 8 11 14 17 18 18 18 19 18 17 16 15 15 15 14 14
18 19 19 18 19 19 19 19 19 18 16 14 14 14 12 13 14 14 13 12 12 12 10 7 5 3 1 4 7 10 13 16 17 17 18 17 17 16 15 15 15 14 14 14
16 16 17 16 16 18 20 20 19 18 16 14 13 12 11 11 13 14 12 11 11 11 8 5 3 2 1 2 5 8 12 14 16 17 18 16 16 15 14 14 15 14 14 14
17 15 16 16 17 18 20 21 20 19 18 16 12 10 8 10 12 13 11 11 11 10 8 5 3 2 1 2 4 6 9 12 14 15 17 16 15 15 15 15 15 14 15 15
20 18 17 18 18 18 19 20 21 20 20 17 13 11 10 10 11 12 11 11 10 9 8 6 4 2 1 1 3 5 7 10 12 13 14 14 14 14 14 15 15 16 16 16
23 21 19 21 20 20 21 21 20 20 20 19 16 11 11 12 12 12 11 11 10 8 7 5 4 2 1 2 3 4 6 7 10 12 13 13 14 14 14 16 16 17 17 17
26 24 22 23 22 23 24 23 22 21 20 20 18 12 12 12 12 11 11 11 10 8 6 6 4 4 3 3 3 4 5 6 8 11 12 13 14 15 16 17 18 18 19 19
30 28 25 24 25 26 27 26 24 22 22 21 20 16 14 13 13 12 11 10 10 8 7 7 6 5 5 5 4 4 5 7 8 9 11 13 14 15 16 18 19 19 20 21
34 33 31 28 27 28 28 28 27 25 24 23 20 18 16 14 13 12 12 11 11 10 10 9 8 7 6 6 6 6 6 8 8 9 10 11 13 14 16 17 18 20 21 22
39 38 37 35 33 32 30 29 29 28 27 26 22 20 16 15 14 13 12 12 11 11 11 11 10 10 9 8 8 8 8 8 8 9 10 12 13 14 16 18 19 20 22 23
43 43 42 41 39 38 35 32 31 29 28 26 23 20 17 16 14 14 13 13 12 12 11 11 11 12 12 12 11 11 11 10 11 12 13 14 15 16 17 18 19 20 22 24
44 45 46 44 43 43 41 35 33 31 29 28 25 21 19 18 17 16 15 15 14 14 13 13 13 14 14 14 13 13 13 13 14 14 15 15 16 17 18 19 21 22 24 26
41 43 45 46 45 46 41 37 36 34 31 30 27 24 22 21 21 20 18 17 18 17 16 15 15 15 15 15 15 15 15 15 15 17 18 18 19 20 20 22 23 25 27 28
37 39 42 44 45 45 42 40 38 36 35 32 29 26 24 24 24 22 20 19 19 18 18 17 16 16 16 16 16 16 16 17 18 18 19 20 21 22 23 25 26 28 29 31
34 36 39 41 43 44 41 39 39 38 36 32 31 30 28 27 25 23 22 22 21 21 20 19 17 17 17 17 17 18 18 19 19 20 21 22 23 24 25 27 28 30 31 33
32 34 35 37 39 40 38 37 38 38 35 32 32 32 30 28 27 26 26 25 24 23 22 21 19 18 18 18 18 19 20 21 22 23 24 24 25 27 27 29 30 31 32 33
29 31 32 34 36 36 34 35 35 35 34 32 32 32 31 30 29 27 27 25 24 24 24 23 22 21 20 20 20 21 22 23 23 24 26 26 27 29 30 30 32 33 34 35
27 29 31 32 33 32 32 32 32 32 33 31 31 31 32 32 31 29 28 28 26 25 27 25 23 23 22 22 23 23 24 25 26 27 28 29 29 30 31 33 34 35 36 36
22 24 26 27 27 28 29 29 29 29 29 29 30 30 31 31 30 29 28 28 26 26 25 25 24 24 24 24 24 25 25 26 27 29 30 30 31 32 33 35 36 37 37 39
18 19 20 21 21 22 23 25 25 26 26 27 28 28 29 29 29 29 29 28 27 27 27 26 26 26 26 26 26 26 27 27 28 30 31 32 33 34 35 37 38 39 40 42
16 16 16 16 16 18 19 20 21 22 22 23 24 25 25 26 25 25 25 25 25 26 26 27 26 26 25 25 26 27 27 28 30 31 32 34 35 36 37 39 40 42 43 45
Wind_Direction
277 272 266 261 259 259 263 269 274 282 295 307 320 326 331 335 335 335 335 335 336 339 337 331 321 294 238 209 203 199 197 198 202 206 208 207 206 207 208 214 217 219 217 214
272 265 255 256 258 258 262 266 273 283 295 307 319 327 331 335 333 334 335 336 336 338 341 337 328 301 243 211 206 203 198 196 201 203 205 204 203 204 207 210 214 215 214 211
266 255 253 256 257 259 261 266 274 286 296 307 317 327 334 337 337 335 336 337 336 334 335 336 332 312 245 214 207 203 200 200 201 201 201 200 201 206 207 209 212 212 213 212
260 251 253 255 255 258 257 267 276 286 295 307 318 325 330 334 340 341 341 339 336 336 336 338 339 325 248 212 202 198 198 199 200 201 201 201 203 205 206 210 213 214 215 215
254 248 251 252 251 254 257 263 273 282 291 302 314 321 327 330 335 337 339 341 337 336 336 334 331 322 248 204 197 197 195 196 197 199 198 199 200 203 208 212 215 216 215 216
247 247 249 248 247 250 254 260 272 280 288 298 309 317 327 329 334 335 335 340 338 335 333 329 326 319 237 199 196 196 197 196 195 196 195 197 200 204 209 214 215 214 214 217
241 243 248 247 244 247 252 259 269 277 284 295 305 314 327 331 337 339 335 337 337 332 327 323 321 318 250 206 193 194 194 194 194 197 198 200 202 204 209 213 213 215 219 220
234 235 243 244 242 241 247 256 266 277 284 293 300 313 329 330 336 341 338 339 339 337 330 323 328 325 292 186 182 187 188 193 196 199 200 202 203 206 209 213 215 221 224 225
229 227 231 231 231 233 241 252 264 272 281 291 298 309 324 327 334 340 339 340 343 341 338 333 329 335 345 167 171 179 188 196 199 200 201 204 207 210 212 216 222 225 227 230
233 226 223 221 223 230 239 248 256 265 275 284 292 300 313 322 325 327 329 330 332 334 336 337 340 330 291 197 184 184 192 198 199 200 203 208 212 214 219 225 230 232 235 239
241 236 227 229 227 229 236 242 252 261 269 280 288 300 306 308 311 319 322 321 321 319 325 332 324 301 257 221 207 198 195 200 203 204 208 215 220 223 228 232 236 239 241 245
251 248 239 237 237 237 240 242 249 258 267 275 284 297 301 303 307 311 314 312 315 310 306 316 308 282 254 238 228 214 207 211 212 214 217 223 229 232 235 238 244 249 250 251
257 257 253 245 243 244 245 248 253 259 265 271 279 291 293 298 300 300 302 302 301 297 292 293 289 274 258 250 243 235 227 223 223 223 224 230 234 237 241 245 249 253 256 257
257 260 260 256 251 250 250 253 256 260 265 270 276 285 286 289 292 292 294 291 291 283 281 280 271 263 259 258 256 256 247 240 237 237 240 241 241 244 247 251 253 255 259 261
255 259 262 262 260 257 253 252 256 260 263 268 274 280 279 281 284 289 292 288 283 280 277 273 266 259 257 257 256 256 257 254 249 247 248 250 254 255 256 256 259 260 260 265
253 257 260 261 262 262 259 255 256 257 261 265 270 277 277 277 282 284 287 283 278 280 278 271 263 258 255 254 254 253 255 257 258 258 258 258 258 258 260 261 263 264 265 268
252 255 258 259 259 261 261 258 258 258 260 263 267 272 273 273 277 278 280 278 273 275 275 272 271 262 259 257 255 256 256 257 260 262 265 267 268 267 267 268 269 270 272 272
253 253 255 257 258 259 261 259 257 256 257 260 263 265 268 271 272 273 274 275 273 273 269 269 268 264 262 260 259 259 261 263 265 268 270 271 272 272 276 276 275 276 276 276
253 253 254 256 257 259 259 258 257 257 255 255 258 262 265 267 270 271 270 272 272 270 265 264 263 260 261 261 260 261 263 266 269 272 273 273 273 274 276 277 277 279 279 279
253 253 254 255 256 257 258 258 257 258 256 254 257 259 262 264 265 265 266 266 269 268 264 263 260 257 256 257 260 264 267 268 270 272 274 274 275 276 277 278 279 279 280 279
253 253 253 254 255 257 258 257 256 255 256 254 253 254 256 258 260 262 263 265 264 262 262 260 255 253 256 258 263 266 268 269 271 274 275 276 279 279 280 281 282 282 282 281
252 252 253 254 254 256 256 256 255 255 253 252 250 250 251 253 257 259 260 261 262 260 258 256 252 253 256 260 264 267 268 270 273 276 278 279 281 282 283 284 285 285 285 285
253 253 254 254 255 256 254 253 253 253 252 250 247 247 249 251 254 255 256 258 259 256 256 251 251 253 255 259 264 268 270 273 275 278 280 281 282 284 285 286 287 288 287 288
254 253 253 253 253 252 251 249 248 249 247 246 246 246 248 250 251 252 254 254 255 254 253 250 251 255 259 262 265 269 272 275 278 281 282 284 286 287 288 288 290 290 290 290
252 251 252 250 248 245 246 245 243 245 246 245 243 243 245 245 247 249 251 250 250 250 253 252 253 256 261 265 268 270 274 277 279 282 284 286 288 289 289 290 291 290 290 290
248 248 246 244 241 240 238 237 238 239 238 236 235 236 239 242 243 242 242 243 245 247 250 251 253 258 262 265 269 273 277 280 283 284 286 287 289 289 290 291 291 291 291 291
Height
5866 5867 5866 5865 5865 5866 5866 5866 5865 5864 5863 5862 5860 5858 5856 5853 5849 5846 5843 5840 5837 5834 5831 5829 5826 5825 5824 5825 5827 5829 5832 5835 5839 5843 5846 5850 5853 5856 5859 5862 5864 5866 5868 5870
5862 5863 5862 5861 5862 5863 5863 5863 5863 5862 5861 5860 5858 5856 5854 5851 5848 5845 5842 5839 5836 5833 5830 5828 5826 5824 5823 5824 5825 5827 5830 5834 5837 5841 5844 5848 5851 5855 5857 5860 5862 5864 5866 5868
5858 5859 5856 5858 5859 5860 5860 5860 5860 5860 5859 5858 5856 5855 5852 5849 5846 5843 5841 5838 5835 5833 5830 5827 5825 5822 5822 5822 5823 5825 5828 5832 5835 5839 5842 5846 5850 5853 5856 5858 5860 5862 5865 5867
5853 5853 5853 5854 5855 5856 5857 5858 5858 5857 5857 5856 5855 5853 5851 5847 5845 5842 5840 5837 5835 5832 5829 5827 5824 5822 5821 5821 5822 5824 5826 5829 5833 5836 5840 5844 5848 5851 5854 5856 5858 5860 5863 5866
5849 5849 5849 5851 5852 5853 5854 5855 5855 5855 5854 5854 5853 5851 5850 5846 5844 5841 5839 5836 5834 5832 5829 5827 5824 5822 5821 5821 5821 5823 5825 5828 5831 5834 5838 5842 5845 5849 5852 5854 5857 5859 5862 5864
5844 5844 5845 5848 5849 5850 5851 5852 5852 5852 5852 5853 5851 5849 5848 5845 5842 5840 5837 5835 5833 5831 5829 5827 5825 5823 5822 5821 5821 5822 5825 5827 5831 5833 5837 5840 5843 5847 5850 5852 5855 5857 5860 5862
5839 5840 5842 5844 5845 5847 5848 5850 5850 5850 5850 5850 5849 5847 5847 5844 5841 5839 5836 5834 5833 5830 5828 5827 5825 5824 5822 5822 5821 5822 5824 5827 5830 5833 5836 5839 5842 5845 5848 5851 5854 5856 5858 5860
5835 5837 5838 5840 5842 5843 5844 5846 5847 5848 5848 5847 5847 5845 5846 5843 5840 5838 5835 5834 5832 5829 5827 5826 5825 5824 5823 5822 5822 5823 5824 5826 5829 5832 5835 5838 5841 5844 5847 5850 5852 5854 5857 5858
5830 5832 5834 5835 5837 5839 5841 5842 5844 5844 5844 5844 5844 5844 5844 5841 5839 5837 5835 5833 5831 5830 5828 5827 5825 5824 5823 5823 5823 5823 5824 5826 5828 5831 5834 5837 5839 5842 5845 5848 5850 5852 5854 5856
5825 5828 5830 5831 5833 5835 5837 5839 5840 5841 5840 5841 5842 5842 5842 5840 5838 5836 5835 5833 5831 5830 5828 5827 5826 5825 5824 5824 5824 5824 5825 5826 5828 5830 5833 5835 5838 5841 5844 5846 5848 5850 5852 5853
5821 5824 5827 5827 5829 5830 5832 5834 5835 5836 5837 5838 5838 5841 5839 5838 5836 5835 5833 5832 5830 5829 5828 5827 5826 5825 5825 5825 5825 5825 5825 5826 5828 5830 5832 5834 5837 5839 5841 5844 5845 5847 5849 5850
5816 5819 5822 5824 5825 5826 5828 5829 5831 5832 5833 5834 5834 5839 5836 5835 5834 5833 5832 5830 5829 5828 5827 5827 5826 5825 5825 5825 5825 5825 5825 5826 5827 5829 5831 5833 5834 5836 5839 5841 5842 5844 5845 5846
5810 5813 5816 5819 5822 5823 5823 5825 5826 5828 5828 5829 5830 5835 5833 5832 5831 5830 5830 5828 5827 5826 5826 5825 5825 5825 5825 5825 5825 5825 5825 5826 5827 5827 5829 5831 5832 5834 5836 5837 5839 5840 5841 5842
5804 5806 5809 5812 5814 5816 5818 5820 5821 5823 5823 5825 5827 5828 5829 5828 5828 5827 5827 5826 5825 5824 5824 5823 5823 5823 5823 5823 5824 5824 5824 5825 5825 5826 5828 5829 5830 5831 5832 5834 5835 5836 5837 5838
5796 5798 5800 5802 5805 5808 5810 5813 5815 5817 5819 5820 5822 5823 5824 5824 5824 5824 5824 5823 5822 5822 5822 5821 5821 5821 5822 5822 5822 5822 5822 5823 5823 5825 5825 5826 5827 5828 5829 5830 5831 5831 5832 5832
5788 5789 5791 5793 5796 5798 5801 5805 5807 5810 5812 5814 5816 5818 5820 5820 5820 5820 5820 5820 5819 5819 5819 5819 5819 5819 5819 5820 5820 5820 5820 5821 5821 5822 5823 5823 5824 5824 5825 5825 5826 5826 5827 5827
5778 5780 5781 5783 5786 5787 5789 5796 5800 5803 5805 5808 5810 5814 5814 5815 5816 5816 5816 5816 5816 5815 5815 5815 5815 5816 5816 5817 5817 5818 5818 5818 5818 5819 5819 5820 5820 5820 5820 5821 5821 5821 5821 5821
5768 5770 5771 5772 5777 5776 5784 5788 5791 5794 5798 5801 5804 5806 5808 5810 5810 5811 5811 5811 5811 5811 5811 5812 5811 5811 5812 5812 5813 5814 5814 5814 5815 5815 5815 5815 5816 5815 5815 5815 5815 5815 5814 5813
5758 5760 5761 5762 5764 5766 5773 5777 5782 5785 5789 5793 5796 5799 5801 5802 5804 5805 5805 5805 5806 5806 5806 5807 5807 5807 5807 5808 5809 5809 5810 5810 5810 5810 5810 5810 5810 5810 5810 5809 5809 5808 5807 5805
5749 5750 5752 5752 5754 5756 5764 5768 5771 5776 5779 5785 5788 5791 5793 5795 5797 5799 5799 5799 5800 5800 5801 5801 5801 5802 5803 5804 5804 5805 5805 5805 5805 5805 5805 5804 5804 5804 5803 5802 5801 5800 5798 5796
5740 5740 5742 5743 5744 5747 5754 5758 5762 5767 5772 5776 5778 5782 5785 5787 5790 5791 5792 5793 5794 5794 5795 5795 5796 5796 5797 5798 5799 5799 5800 5800 5800 5800 5799 5798 5797 5796 5795 5794 5793 5791 5789 5787
5731 5732 5733 5735 5736 5742 5745 5748 5752 5757 5761 5765 5769 5772 5775 5778 5780 5782 5784 5785 5786 5787 5788 5789 5790 5791 5791 5792 5793 5794 5794 5794 5793 5793 5792 5791 5790 5789 5787 5785 5784 5782 5779 5777
5723 5725 5725 5727 5731 5733 5736 5739 5743 5747 5752 5755 5759 5763 5766 5769 5772 5774 5776 5777 5779 5779 5781 5782 5783 5785 5785 5786 5787 5787 5787 5787 5786 5785 5784 5783 5781 5780 5778 5776 5774 5771 5769 5766
5716 5716 5717 5719 5721 5724 5727 5730 5734 5738 5742 5746 5750 5754 5757 5760 5763 5765 5767 5769 5771 5772 5774 5775 5777 5778 5779 5779 5779 5779 5779 5779 5778 5777 5776 5774 5772 5770 5768 5766 5763 5761 5758 5755
5710 5710 5710 5712 5715 5717 5719 5723 5726 5730 5734 5737 5741 5745 5748 5751 5754 5756 5758 5760 5762 5764 5766 5768 5769 5770 5771 5771 5771 5771 5771 5770 5770 5769 5767 5765 5763 5760 5758 5756 5753 5750 5747 5744
5705 5705 5706 5708 5710 5711 5714 5716 5720 5723 5726 5730 5734 5737 5740 5743 5746 5748 5750 5752 5755 5757 5759 5761 5762 5763 5763 5764 5764 5764 5763 5762 5761 5760 5758 5756 5754 5751 5748 5745 5742 5738 5735 5731